ARG1719 SAAR-SABE

Flight info

Callsign ARG1719
Flight time 0h 32m
Altitude 17000
Route VASAL W20 MULTA W24 SNT
Aircraft B738/M-V/N

Departure

Time 2026-05-09 02:44
Airport Rosario Islas Malvinas International Airport (SAAR)

Arrival

Time 2026-05-09 03:16
Airport Aeroparque Jorge Newbery (SABE)
Time Latitude Longitude Altitude Speed Heading
2026-05-09 02:17 -32.91665 -60.78116 94 ft 0 kts 111°
2026-05-09 02:37 -32.91660 -60.78129 93 ft 3 kts 111°
2026-05-09 02:37 -32.91651 -60.78156 93 ft 3 kts 111°
2026-05-09 02:37 -32.91642 -60.78184 94 ft 4 kts 111°
2026-05-09 02:37 -32.91641 -60.78217 93 ft 4 kts 58°
2026-05-09 02:38 -32.91651 -60.78230 95 ft 0 kts 21°
2026-05-09 02:39 -32.91626 -60.78208 94 ft 14 kts 40°
2026-05-09 02:39 -32.91533 -60.78139 97 ft 18 kts 23°
2026-05-09 02:39 -32.91413 -60.78187 95 ft 22 kts 322°
2026-05-09 02:40 -32.91295 -60.78301 95 ft 22 kts 322°
2026-05-09 02:40 -32.91178 -60.78411 94 ft 21 kts 321°
2026-05-09 02:40 -32.91056 -60.78499 95 ft 20 kts 336°
2026-05-09 02:40 -32.90919 -60.78569 95 ft 23 kts 340°
2026-05-09 02:41 -32.90741 -60.78559 95 ft 30 kts 11°
2026-05-09 02:41 -32.90500 -60.78507 93 ft 37 kts 13°
2026-05-09 02:41 -32.90254 -60.78452 89 ft 35 kts
2026-05-09 02:41 -32.90022 -60.78414 91 ft 32 kts
2026-05-09 02:42 -32.89813 -60.78362 94 ft 29 kts 12°
2026-05-09 02:42 -32.89612 -60.78313 92 ft 32 kts 11°
2026-05-09 02:42 -32.89391 -60.78263 90 ft 32 kts 13°
2026-05-09 02:42 -32.89227 -60.78232 91 ft 11 kts 16°
2026-05-09 02:43 -32.89235 -60.78223 91 ft 3 kts 171°
2026-05-09 02:43 -32.89326 -60.78235 91 ft 41 kts 191°
2026-05-09 02:43 -32.89864 -60.78358 92 ft 116 kts 191°
2026-05-09 02:43 -32.90862 -60.78578 237 ft 165 kts 195°
2026-05-09 02:44 -32.92000 -60.78793 1184 ft 163 kts 197°
2026-05-09 02:44 -32.93087 -60.78980 2291 ft 157 kts 197°
2026-05-09 02:44 -32.94216 -60.79248 2637 ft 175 kts 198°
2026-05-09 02:44 -32.95441 -60.79566 2814 ft 190 kts 197°
2026-05-09 02:45 -32.96768 -60.79894 3120 ft 198 kts 197°
2026-05-09 02:45 -32.98142 -60.80220 3522 ft 203 kts 196°
2026-05-09 02:45 -32.99538 -60.80546 4077 ft 204 kts 196°
2026-05-09 02:45 -33.00945 -60.80757 4658 ft 210 kts 181°
2026-05-09 02:46 -33.02389 -60.80295 5197 ft 222 kts 162°
2026-05-09 02:46 -33.03713 -60.79238 5711 ft 235 kts 146°
2026-05-09 02:46 -33.04955 -60.77931 6260 ft 239 kts 145°
2026-05-09 02:46 -33.06213 -60.76606 6787 ft 243 kts 146°
2026-05-09 02:47 -33.07480 -60.75280 7300 ft 247 kts 146°
2026-05-09 02:47 -33.08794 -60.73908 7799 ft 253 kts 146°
2026-05-09 02:47 -33.10166 -60.72491 8090 ft 271 kts 146°
2026-05-09 02:47 -33.11646 -60.70979 8509 ft 286 kts 146°
2026-05-09 02:48 -33.13163 -60.69423 9183 ft 292 kts 146°
2026-05-09 02:48 -33.14707 -60.67835 9849 ft 299 kts 147°
2026-05-09 02:48 -33.16313 -60.66183 10351 ft 311 kts 147°
2026-05-09 02:48 -33.18003 -60.64450 10735 ft 326 kts 147°
2026-05-09 02:49 -33.19726 -60.62675 11323 ft 332 kts 147°
2026-05-09 02:49 -33.21485 -60.60856 12010 ft 336 kts 147°
2026-05-09 02:49 -33.23279 -60.59001 12686 ft 341 kts 148°
2026-05-09 02:49 -33.25066 -60.57155 13339 ft 346 kts 148°
2026-05-09 02:50 -33.26911 -60.55248 14018 ft 351 kts 148°
2026-05-09 02:50 -33.28760 -60.53334 14693 ft 352 kts 148°
2026-05-09 02:50 -33.30614 -60.51419 15205 ft 359 kts 147°
2026-05-09 02:50 -33.32526 -60.49445 15742 ft 365 kts 147°
2026-05-09 02:51 -33.34507 -60.47486 16292 ft 368 kts 151°
2026-05-09 02:51 -33.36467 -60.45511 16824 ft 377 kts 145°
2026-05-09 02:51 -33.38409 -60.43315 16971 ft 391 kts 143°
2026-05-09 02:51 -33.40396 -60.41022 16983 ft 408 kts 143°
2026-05-09 02:52 -33.42488 -60.38582 16983 ft 424 kts 142°
2026-05-09 02:52 -33.44612 -60.36094 16979 ft 438 kts 142°
2026-05-09 02:52 -33.46840 -60.33478 16984 ft 452 kts 141°
2026-05-09 02:52 -33.49047 -60.30779 16953 ft 465 kts 137°
2026-05-09 02:53 -33.51177 -60.27807 16953 ft 469 kts 134°
2026-05-09 02:53 -33.53228 -60.24737 16937 ft 468 kts 133°
2026-05-09 02:53 -33.55214 -60.21694 16944 ft 467 kts 133°
2026-05-09 02:53 -33.57227 -60.18609 16940 ft 467 kts 133°
2026-05-09 02:54 -33.59226 -60.15573 16923 ft 467 kts 134°
2026-05-09 02:54 -33.61254 -60.12522 16945 ft 466 kts 134°
2026-05-09 02:54 -33.63290 -60.09481 16950 ft 466 kts 133°
2026-05-09 02:54 -33.65307 -60.06482 16946 ft 466 kts 133°
2026-05-09 02:55 -33.67355 -60.03445 16936 ft 465 kts 133°
2026-05-09 02:55 -33.69376 -60.00445 16934 ft 465 kts 133°
2026-05-09 02:55 -33.71420 -59.97410 16933 ft 465 kts 133°
2026-05-09 02:55 -33.73467 -59.94367 16934 ft 465 kts 133°
2026-05-09 02:56 -33.75482 -59.91367 16931 ft 465 kts 133°
2026-05-09 02:56 -33.77521 -59.88329 16911 ft 465 kts 134°
2026-05-09 02:56 -33.79533 -59.85328 16939 ft 463 kts 133°
2026-05-09 02:56 -33.81561 -59.82299 16922 ft 462 kts 133°
2026-05-09 02:57 -33.83555 -59.79319 16918 ft 461 kts 133°
2026-05-09 02:57 -33.85577 -59.76294 16911 ft 460 kts 133°
2026-05-09 02:57 -33.87566 -59.73318 16914 ft 459 kts 133°
2026-05-09 02:57 -33.89566 -59.70322 16916 ft 459 kts 133°
2026-05-09 02:58 -33.91579 -59.67304 16914 ft 459 kts 133°
2026-05-09 02:58 -33.93565 -59.64326 16913 ft 459 kts 133°
2026-05-09 02:58 -33.95568 -59.61317 16930 ft 459 kts 131°
2026-05-09 02:58 -33.97554 -59.58331 16899 ft 459 kts 131°
2026-05-09 02:59 -33.99553 -59.55325 16898 ft 458 kts 131°
2026-05-09 02:59 -34.01550 -59.52319 16901 ft 458 kts 131°
2026-05-09 02:59 -34.03522 -59.49348 16907 ft 458 kts 131°
2026-05-09 02:59 -34.05531 -59.46318 16898 ft 458 kts 131°
2026-05-09 03:00 -34.07508 -59.43335 16897 ft 458 kts 131°
2026-05-09 03:00 -34.09490 -59.40342 16893 ft 459 kts 131°
2026-05-09 03:00 -34.11490 -59.37318 16911 ft 458 kts 130°
2026-05-09 03:00 -34.13463 -59.34333 16899 ft 458 kts 130°
2026-05-09 03:01 -34.15454 -59.31317 16878 ft 455 kts 131°
2026-05-09 03:01 -34.17406 -59.28356 16855 ft 441 kts 131°
2026-05-09 03:01 -34.19307 -59.25468 16434 ft 434 kts 131°
2026-05-09 03:01 -34.21169 -59.22640 15958 ft 430 kts 131°
2026-05-09 03:02 -34.23027 -59.19817 15455 ft 425 kts 131°
2026-05-09 03:02 -34.24840 -59.17062 14965 ft 421 kts 131°
2026-05-09 03:02 -34.26664 -59.14288 14488 ft 416 kts 131°
2026-05-09 03:02 -34.28444 -59.11578 14003 ft 412 kts 131°
2026-05-09 03:03 -34.30230 -59.08857 13478 ft 408 kts 131°
2026-05-09 03:03 -34.31969 -59.06205 12935 ft 404 kts 131°
2026-05-09 03:03 -34.33705 -59.03555 12571 ft 396 kts 131°
2026-05-09 03:03 -34.35404 -59.00958 12193 ft 391 kts 131°
2026-05-09 03:04 -34.37093 -58.98378 11956 ft 394 kts 131°
2026-05-09 03:04 -34.38818 -58.95744 11699 ft 401 kts 131°
2026-05-09 03:04 -34.40544 -58.93105 11460 ft 402 kts 131°
2026-05-09 03:04 -34.42281 -58.90444 11200 ft 397 kts 131°
2026-05-09 03:05 -34.43967 -58.87855 10942 ft 390 kts 131°
2026-05-09 03:05 -34.45622 -58.85314 10690 ft 385 kts 131°
2026-05-09 03:05 -34.47287 -58.82757 10426 ft 382 kts 131°
2026-05-09 03:05 -34.48939 -58.80220 9940 ft 379 kts 132°
2026-05-09 03:06 -34.50544 -58.77753 9424 ft 375 kts 132°
2026-05-09 03:06 -34.52160 -58.75267 8920 ft 371 kts 132°
2026-05-09 03:06 -34.53746 -58.72825 8420 ft 368 kts 132°
2026-05-09 03:06 -34.55329 -58.70387 7923 ft 364 kts 132°
2026-05-09 03:07 -34.56896 -58.67972 7431 ft 361 kts 132°
2026-05-09 03:07 -34.58426 -58.65611 6934 ft 359 kts 132°
2026-05-09 03:07 -34.59973 -58.63224 6459 ft 357 kts 132°
2026-05-09 03:07 -34.61385 -58.60768 5982 ft 362 kts 119°
2026-05-09 03:08 -34.62210 -58.57883 5901 ft 357 kts 110°
2026-05-09 03:08 -34.62922 -58.55027 5855 ft 349 kts 110°
2026-05-09 03:08 -34.63631 -58.52249 5846 ft 339 kts 110°
2026-05-09 03:08 -34.64328 -58.49558 5839 ft 325 kts 111°
2026-05-09 03:09 -34.64994 -58.47022 5827 ft 311 kts 111°
2026-05-09 03:09 -34.65642 -58.44567 5840 ft 297 kts 111°
2026-05-09 03:09 -34.66263 -58.42227 5834 ft 284 kts 112°
2026-05-09 03:09 -34.66853 -58.40002 5834 ft 271 kts 112°
2026-05-09 03:10 -34.67234 -58.38565 5833 ft 262 kts 112°
2026-05-09 03:10 -34.67787 -58.36486 5680 ft 257 kts 112°
2026-05-09 03:10 -34.68336 -58.34425 5268 ft 263 kts 112°
2026-05-09 03:10 -34.68896 -58.32312 5020 ft 261 kts 112°
2026-05-09 03:11 -34.69619 -58.29573 4852 ft 252 kts 112°
2026-05-09 03:11 -34.69917 -58.28184 4680 ft 255 kts 99°
2026-05-09 03:11 -34.69619 -58.26061 4293 ft 260 kts 59°
2026-05-09 03:11 -34.68386 -58.24573 3967 ft 250 kts 18°
2026-05-09 03:12 -34.66715 -58.24206 3250 ft 246 kts 340°
2026-05-09 03:12 -34.65351 -58.25123 3070 ft 212 kts 307°
2026-05-09 03:12 -34.64415 -58.26456 2803 ft 203 kts 300°
2026-05-09 03:12 -34.63613 -58.27812 2552 ft 193 kts 298°
2026-05-09 03:13 -34.62192 -58.30339 2065 ft 168 kts 296°
2026-05-09 03:13 -34.61558 -58.31474 1848 ft 156 kts 295°
2026-05-09 03:13 -34.60972 -58.32524 1660 ft 147 kts 295°
2026-05-09 03:14 -34.60417 -58.33483 1561 ft 126 kts 296°
2026-05-09 03:14 -34.59920 -58.34327 1364 ft 124 kts 296°
2026-05-09 03:14 -34.59429 -58.35186 1167 ft 123 kts 295°
2026-05-09 03:14 -34.58963 -58.36042 977 ft 122 kts 296°
2026-05-09 03:15 -34.58481 -58.36932 866 ft 134 kts 298°
2026-05-09 03:15 -34.57966 -58.37907 684 ft 140 kts 300°
2026-05-09 03:15 -34.57424 -58.38886 439 ft 141 kts 302°
2026-05-09 03:15 -34.56871 -58.39871 248 ft 141 kts 303°
2026-05-09 03:16 -34.56329 -58.40850 32 ft 131 kts 303°
2026-05-09 03:16 -34.55901 -58.41623 22 ft 83 kts 304°
2026-05-09 03:16 -34.55699 -58.41988 29 ft 28 kts 303°
2026-05-09 03:16 -34.55594 -58.42184 29 ft 27 kts 302°
2026-05-09 03:17 -34.55491 -58.42364 26 ft 25 kts 307°
2026-05-09 03:17 -34.55413 -58.42498 28 ft 8 kts 305°
2026-05-09 03:17 -34.55369 -58.42490 24 ft 8 kts 54°
2026-05-09 03:17 -34.55363 -58.42428 24 ft 7 kts 97°
2026-05-09 03:18 -34.55379 -58.42360 26 ft 11 kts 122°
2026-05-09 03:18 -34.55432 -58.42273 28 ft 14 kts 127°
2026-05-09 03:18 -34.55497 -58.42170 26 ft 16 kts 127°
2026-05-09 03:18 -34.55569 -58.42055 25 ft 18 kts 126°
2026-05-09 03:19 -34.55642 -58.41926 26 ft 19 kts 124°
2026-05-09 03:19 -34.55713 -58.41796 26 ft 18 kts 122°
2026-05-09 03:19 -34.55770 -58.41666 26 ft 17 kts 116°
2026-05-09 03:19 -34.55826 -58.41537 25 ft 17 kts 118°
2026-05-09 03:20 -34.55880 -58.41413 27 ft 16 kts 118°
2026-05-09 03:20 -34.55883 -58.41296 28 ft 16 kts 29°
2026-05-09 03:20 -34.55826 -58.41325 26 ft 5 kts 300°
2026-05-09 03:20 -34.55805 -58.41326 24 ft 3 kts 48°
2026-05-09 03:21 -34.55780 -58.41290 26 ft 6 kts 40°
2026-05-09 03:21 -34.55776 -58.41286 28 ft 0 kts 36°